Location: Erba
(45.8000°N, 9.2500°E)
Time: 11:51:28
(UTC+02:00)

ISS - Pass Details

Date: 09 July 2020
Orbit: 417 x 420 km, 51.6° (Epoch: 02 July)

Event Time Altitude Azimuth Distance (km) Brightness Sun altitude
Exits shadow 01:03:45 12° 77° (ENE) 1,367 -1.1 -21.6°
Drops below altitude 10° 01:04:06 10° 75° (ENE) 1,496 -0.9 -21.6°
Sets 01:06:18 0° 66° (ENE) 2,362 0.3 -21.7°
